This is the latest recevied weather packets stored in our database for station/object N8HON. If no packets are shown the sender has not sent any weather packets the latest 10 day(s).
| Time | Temp. | Humidity | Pressure | Rain* | Wind** | Luminosity | Snow |
|---|---|---|---|---|---|---|---|
| 1777906990 | 19.44° C | 45% | 1012.2 hPa | 0 mm | - | 786 W/m² | - |
| 1777906689 | 18.33° C | 43% | 1012.4 hPa | 0 mm | - | 690 W/m² | - |
| 1777906384 | 18.89° C | 43% | 1012.5 hPa | 0 mm | - | 750 W/m² | - |
| 1777906081 | 18.33° C | 47% | 1012.4 hPa | 0 mm | - | 758 W/m² | - |
| 1777905777 | 18.89° C | 44% | 1012.5 hPa | 0 mm | - | 714 W/m² | - |
| 1777905475 | 18.33° C | 48% | 1012.6 hPa | 0 mm | - | 645 W/m² | - |
| 1777905172 | 17.78° C | 47% | 1012.6 hPa | 0 mm | - | 582 W/m² | - |
| 1777904869 | 18.33° C | 47% | 1012.5 hPa | 0 mm | - | 641 W/m² | - |
| 1777904566 | 17.78° C | 45% | 1012.3 hPa | 0 mm | - | 606 W/m² | - |
| 1777904263 | 17.22° C | 46% | 1012.6 hPa | 0 mm | - | 630 W/m² | - |
| 1777903961 | 17.78° C | 46% | 1012.5 hPa | 0 mm | - | 612 W/m² | - |
| 1777903657 | 17.22° C | 49% | 1012.7 hPa | 0 mm | - | 567 W/m² | - |
| 1777903353 | 17.22° C | 47% | 1012.4 hPa | 0 mm | - | 512 W/m² | - |
| 1777903050 | 17.22° C | 46% | 1012.4 hPa | 0 mm | - | 548 W/m² | - |
| 1777902746 | 16.11° C | 47% | 1012.6 hPa | 0 mm | - | 545 W/m² | - |
| 1777902443 | 16.67° C | 47% | 1012.4 hPa | 0 mm | - | 511 W/m² | - |
| 1777902140 | 16.11° C | 49% | 1012.4 hPa | 0 mm | - | 532 W/m² | - |
| 1777901839 | 16.11° C | 47% | 1012.5 hPa | 0 mm | - | 494 W/m² | - |
| 1777901536 | 16.11° C | 49% | 1012.5 hPa | 0 mm | - | 473 W/m² | - |
| 1777901233 | 15.56° C | 51% | 1012.6 hPa | 0 mm | - | 434 W/m² | - |
| 1777900930 | 15.56° C | 51% | 1012.9 hPa | 0 mm | - | 395 W/m² | - |
| 1777900628 | 15° C | 52% | 1012.7 hPa | 0 mm | - | 383 W/m² | - |
| 1777900324 | 15° C | 54% | 1013 hPa | 0 mm | - | 126 W/m² | - |
| 1777900022 | 14.44° C | 54% | 1013 hPa | 0 mm | - | 334 W/m² | - |
| 1777899717 | 14.44° C | 56% | 1013.2 hPa | 0 mm | - | 296 W/m² | - |
* Rain latest hour (hover to see other rain measurements)
** Current wind speed in m/s (hover to see current wind gust speed)